Weather History for Eastsound, WA

Change the Weather History Date:

Friday, November 15, 2013

  Actual Average (KBLI) Record (KBLI)
Temperature  
Mean Temperature 44 °F 43 °F  
Max Temperature 46 °F 50 °F 65 °F (2004)
Min Temperature 41 °F 37 °F 3 °F (1955)
Degree Days  
Heating Degree Days 22 22  
Month to date heating degree days 301  
Cooling Degree Days 0 0  
Month to date cooling degree days 0  
Year to date cooling degree days 42  
Moisture  
Dew Point 44 °F    
Average Humidity 100    
Maximum Humidity 100    
Minimum Humidity 100    
Precipitation  
Precipitation 0.11 in 0.21 in 0.87 in (2013)
Month to date precipitation 2.94  
Year to date precipitation 28.75  
Sea Level Pressure  
Sea Level Pressure 29.86 in    
Wind  
Wind Speed 4 mph (South)    
Max Wind Speed 15 mph    
Max Gust Speed 23 mph    
Visibility 8 miles    
Events Rain    
T = Trace of Precipitation, MM = Missing Value Source: NWS Daily Summary

Daily Weather History Graph

Daily Weather History Graph

Search for Another Location

Airport:

Trip Planner

Search our weather history database for the weather conditions in past years. The results will help you decide how hot, cold, wet, or windy it might be!

Date:

Astronomy

Nov. 15, 2013 Rise Set
Actual Time 7:20 AM PST 4:31 PM PST
Civil Twilight 6:46 AM PST 5:05 PM PST
Nautical Twilight 6:07 AM PST 5:44 PM PST
Astronomical Twilight 5:30 AM PST 6:21 PM PST
Moon 3:38 PM PST (11/15) 5:14 AM PST (11/15)
Length of Visible Light 10h 19m
Length of Day
9h 10m
Waxing Gibbous, 97% of the Moon is Illuminated
Nov 15
Waxing Gibbous
Nov 17
Full
Nov 25
Last Quarter
Dec 2
New
Dec 9
First Quarter

Hourly Weather History & Observations

Time (PST) Temp. Windchill Dew Point Humidity Pressure Visibility Wind Dir Wind Speed Gust Speed Precip Events Conditions
12:35 AM 41.0 °F - 41.0 °F 100% 30.03 in 10.0 mi Calm Calm - N/A   Mostly Cloudy
12:55 AM 41.0 °F - 41.0 °F 100% 30.03 in 10.0 mi Calm Calm - N/A   Overcast
1:15 AM 41.0 °F - 41.0 °F 100% 30.01 in 10.0 mi Calm Calm - N/A   Overcast
1:35 AM 42.8 °F - 42.8 °F 100% 30.01 in 10.0 mi Calm Calm - N/A   Overcast
1:55 AM 44.6 °F - 44.6 °F 100% 29.99 in 10.0 mi Calm Calm - N/A   Mostly Cloudy
2:15 AM 42.8 °F - 42.8 °F 100% 29.99 in 10.0 mi Calm Calm - N/A   Mostly Cloudy
2:35 AM 42.8 °F - 42.8 °F 100% 29.99 in 10.0 mi Calm Calm - N/A   Mostly Cloudy
2:55 AM 44.6 °F 42.2 °F 44.6 °F 100% 29.98 in 10.0 mi ESE 4.6 mph - N/A   Overcast
3:15 AM 44.6 °F 42.2 °F 44.6 °F 100% 29.97 in 10.0 mi South 4.6 mph - N/A   Mostly Cloudy
3:55 AM 44.6 °F 43.1 °F 44.6 °F 100% 29.96 in 10.0 mi South 3.5 mph - N/A   Overcast
4:15 AM 44.6 °F 41.4 °F 44.6 °F 100% 29.95 in 10.0 mi SSW 5.8 mph - N/A   Overcast
4:35 AM 44.6 °F 40.7 °F 44.6 °F 100% 29.94 in 10.0 mi South 6.9 mph - N/A   Mostly Cloudy
4:55 AM 44.6 °F 41.4 °F 44.6 °F 100% 29.93 in 10.0 mi South 5.8 mph - N/A   Mostly Cloudy
5:15 AM 44.6 °F 41.4 °F 44.6 °F 100% 29.93 in 10.0 mi SSW 5.8 mph - N/A   Mostly Cloudy
5:35 AM 44.6 °F 41.4 °F 44.6 °F 100% 29.91 in 10.0 mi SSW 5.8 mph - N/A   Mostly Cloudy
5:55 AM 44.6 °F 42.2 °F 44.6 °F 100% 29.90 in 10.0 mi South 4.6 mph - N/A   Mostly Cloudy
6:15 AM 44.6 °F 41.4 °F 44.6 °F 100% 29.89 in 10.0 mi SSW 5.8 mph - N/A   Partly Cloudy
6:35 AM 44.6 °F 42.2 °F 44.6 °F 100% 29.88 in 10.0 mi SSW 4.6 mph - N/A   Clear
6:55 AM 44.6 °F 41.4 °F 44.6 °F 100% 29.88 in 10.0 mi SSW 5.8 mph - N/A   Clear
7:15 AM 44.6 °F 41.4 °F 44.6 °F 100% 29.87 in 10.0 mi South 5.8 mph - N/A   Mostly Cloudy
7:35 AM 46.4 °F 43.5 °F 46.4 °F 100% 29.87 in 10.0 mi SSW 5.8 mph - N/A   Scattered Clouds
7:55 AM 46.4 °F 42.9 °F 46.4 °F 100% 29.87 in 10.0 mi SSW 6.9 mph - N/A   Clear
8:15 AM 46.4 °F 42.4 °F 46.4 °F 100% 29.85 in 10.0 mi SSW 8.1 mph - N/A   Mostly Cloudy
8:35 AM 46.4 °F 42.4 °F 46.4 °F 100% 29.84 in 10.0 mi South 8.1 mph - N/A   Mostly Cloudy
8:55 AM 46.4 °F 41.9 °F 46.4 °F 100% 29.84 in 10.0 mi SSW 9.2 mph - N/A   Scattered Clouds
9:15 AM 46.4 °F 44.3 °F 46.4 °F 100% 29.84 in 10.0 mi South 4.6 mph - N/A   Partly Cloudy
9:35 AM 46.4 °F 41.1 °F 46.4 °F 100% 29.83 in 5.0 mi SSW 11.5 mph - N/A Rain Light Rain
9:55 AM 44.6 °F 39.7 °F 44.6 °F 100% 29.83 in 4.0 mi South 9.2 mph - N/A Rain Light Rain
10:15 AM 44.6 °F 39.2 °F 44.6 °F 100% 29.82 in 3.0 mi SSW 10.4 mph 16.1 mph N/A Rain Light Rain
10:35 AM 44.6 °F 39.2 °F 44.6 °F 100% 29.81 in 5.0 mi SSW 10.4 mph - N/A Rain Light Rain
10:55 AM 44.6 °F 39.2 °F 44.6 °F 100% 29.80 in 5.0 mi South 10.4 mph - N/A Rain Light Rain
11:15 AM 44.6 °F 39.7 °F 44.6 °F 100% 29.77 in 5.0 mi South 9.2 mph 17.3 mph N/A Rain Light Rain
11:35 AM 44.6 °F 38.8 °F 44.6 °F 100% 29.75 in 4.0 mi South 11.5 mph 17.3 mph N/A Rain Light Rain
11:55 AM 44.6 °F 37.8 °F 44.6 °F 100% 29.72 in 2.5 mi South 15.0 mph 18.4 mph 0.01 in Rain Rain
12:15 PM 44.6 °F 37.8 °F 44.6 °F 100% 29.71 in 2.5 mi SSW 15.0 mph 20.7 mph 0.03 in Rain Rain
12:35 PM 42.8 °F 36.6 °F 42.8 °F 100% 29.69 in 3.0 mi South 11.5 mph 18.4 mph 0.06 in   Overcast
12:55 PM 42.8 °F 36.2 °F 42.8 °F 100% 29.67 in 3.0 mi South 12.7 mph 23.0 mph 0.07 in   Mostly Cloudy
1:15 PM 42.8 °F 37.0 °F 42.8 °F 100% 29.66 in 3.0 mi South 10.4 mph 17.3 mph 0.01 in Rain Rain
1:35 PM 42.8 °F 38.0 °F 42.8 °F 100% 29.64 in 4.0 mi South 8.1 mph 17.3 mph 0.02 in Rain Light Rain
1:55 PM 42.8 °F 36.6 °F 42.8 °F 100% 29.62 in 6.0 mi South 11.5 mph 17.3 mph 0.03 in Rain Light Rain
2:15 PM 42.8 °F 37.5 °F 42.8 °F 100% 29.60 in 4.0 mi South 9.2 mph - N/A Rain Light Rain